Regional Weather Roundup
Issued by NWS

Home | Current Version | Previous Version | Graphics & Text | Print | Product List | Glossary Off
Versions: 1 2 3 4 5 6 7 8 9 10 11 12 13 14 15 16 17 18 19 20 21 22 23 24 25 26 27 28 29 30 31 32 33 34 35 36 37 38 39 40 41 42 43 44 45 46 47 48 49 50

000
ASUS43 KFSD 272210
RWRSD

WEATHER ROUNDUP FOR SOUTH DAKOTA
NATIONAL WEATHER SERVICE SIOUX FALLS SD
500 PM CDT WED AUG 27 2014

NOTE: "FAIR" INDICATES FEW OR NO CLOUDS BELOW 12,000 FEET WITH NO
SIGNIFICANT WEATHER AND/OR OBSTRUCTIONS TO VISIBILITY.


SDZ001>005-009-010-012>017-272300-
NORTHWEST AND NORTH CENTRAL SOUTH DAKOTA

CITY           SKY/WX    TMP DP  RH WIND       PRES   REMARKS
BUFFALO          N/A     77  57  50 SE12      30.01S
FAITH            N/A     67  63  87 SE9       30.07F
MOBRIDGE       CLOUDY    70  62  76 E6        30.05F
$$

SDZ012>016-024>037-041>051-057-063-072>074-272300-
SOUTHWEST AND SOUTH CENTRAL SOUTH DAKOTA

CITY           SKY/WX    TMP DP  RH WIND       PRES   REMARKS
RAPID CTY ARPT CLOUDY    73  61  65 S3        30.07F
PIERRE         CLOUDY    76  66  71 SE12      30.02F
CUSTER         CLOUDY    65  56  72 E6        30.17F
ELLSWORTH AFB  CLOUDY    73  62  68 VRB5      30.06F
PHILIP         CLOUDY    74  66  76 E7        30.02F
PINE RIDGE     CLOUDY    68  64  87 N9G20     30.04S THUNDER
WINNER         CLOUDY    75  65  70 SE12      30.05F
$$

SDZ004>011-016>023-039-040-272300-
NORTHEAST SOUTH DAKOTA

CITY           SKY/WX    TMP DP  RH WIND       PRES   REMARKS
ABERDEEN       CLOUDY    69  60  73 SE6       30.08F
WATERTOWN      CLOUDY    73  59  61 VRB7      30.10F
SISSETON         N/A     75  60  59 S9        30.09F
$$

SDZ017-020-022-023-036>040-048>070-272300-
SOUTHEAST SOUTH DAKOTA

CITY           SKY/WX    TMP DP  RH WIND       PRES   REMARKS
SIOUX FALLS    PTSUNNY   72  64  76 S13       30.11F
HURON          CLOUDY    76  64  66 S8        30.06F
CHAMBERLAIN    PTSUNNY   76  66  71 SE12      30.05F
MITCHELL       CLOUDY    75  66  73 S15       30.08F
YANKTON        CLOUDY    70  66  88 E7        30.08F
$$

ABBREVIATIONS USED IN REMARKS
   TC - TEMPERATURE IN CELSIUS
  WCI - WIND CHILL INDEX
   HX - HEAT INDEX
  VSB - VISIBILITY



USA.gov is the U.S. government's official web portal to all federal, state and local government web resources and services.